Time,TemperatureF,DewpointF,PressureIn,WindDirection,WindDirectionDegrees,WindSpeedMPH,WindSpeedGustMPH,Humidity,HourlyPrecipIn,Conditions,Clouds,dailyrainin,SoftwareType,DateUTC
2015-05-23 00:00:00,55.3,52.4,30.23,East,92,0.0,10.0,90,0.00,,,0.00,Wunderground v.1.15,2015-05-23 04:00:00,
2015-05-23 00:05:00,55.4,52.8,30.24,East,92,0.0,10.0,91,0.00,,,0.00,Wunderground v.1.15,2015-05-23 04:05:00,
2015-05-23 00:10:00,55.3,52.7,30.24,East,92,0.0,10.0,91,0.00,,,0.00,Wunderground v.1.15,2015-05-23 04:10:00,
2015-05-23 00:15:00,55.0,52.4,30.24,East,92,0.0,10.0,91,0.00,,,0.00,Wunderground v.1.15,2015-05-23 04:15:00,
2015-05-23 00:25:00,54.5,51.9,30.24,East,92,0.0,10.0,91,0.00,,,0.00,Wunderground v.1.15,2015-05-23 04:25:00,
2015-05-23 00:30:00,54.4,51.8,30.24,East,92,0.0,10.0,91,0.00,,,0.00,Wunderground v.1.15,2015-05-23 04:30:00,
2015-05-23 00:35:00,54.2,51.9,30.24,East,92,0.0,10.0,92,0.00,,,0.00,Wunderground v.1.15,2015-05-23 04:35:00,
2015-05-23 00:40:00,54.1,51.8,30.24,East,92,0.0,10.0,92,0.00,,,0.00,Wunderground v.1.15,2015-05-23 04:40:00,
2015-05-23 00:50:00,53.9,51.9,30.25,East,92,0.0,10.0,93,0.00,,,0.00,Wunderground v.1.15,2015-05-23 04:50:00,
2015-05-23 00:55:00,53.7,51.4,30.25,East,92,0.0,10.0,92,0.00,,,0.00,Wunderground v.1.15,2015-05-23 04:55:00,
2015-05-23 01:00:00,53.5,51.2,30.25,East,92,0.0,10.0,92,0.00,,,0.00,Wunderground v.1.15,2015-05-23 05:00:00,
2015-05-23 01:05:00,53.3,51.0,30.25,East,92,0.0,10.0,92,0.00,,,0.00,Wunderground v.1.15,2015-05-23 05:05:00,
2015-05-23 01:15:00,52.9,50.6,30.25,East,92,0.0,10.0,92,0.00,,,0.00,Wunderground v.1.15,2015-05-23 05:15:00,
2015-05-23 01:20:00,52.8,50.5,30.25,East,92,0.0,10.0,92,0.00,,,0.00,Wunderground v.1.15,2015-05-23 05:20:00,
2015-05-23 01:25:00,52.6,50.6,30.25,East,92,0.0,10.0,93,0.00,,,0.00,Wunderground v.1.15,2015-05-23 05:25:00,
2015-05-23 01:30:00,52.5,50.5,30.25,East,92,0.0,10.0,93,0.00,,,0.00,Wunderground v.1.15,2015-05-23 05:30:00,
2015-05-23 01:40:00,52.2,50.2,30.25,East,92,0.0,10.0,93,0.00,,,0.00,Wunderground v.1.15,2015-05-23 05:40:00,
2015-05-23 01:45:00,52.1,50.1,30.25,East,92,0.0,10.0,93,0.00,,,0.00,Wunderground v.1.15,2015-05-23 05:45:00,
2015-05-23 01:50:00,51.9,49.9,30.25,East,92,0.0,10.0,93,0.00,,,0.00,Wunderground v.1.15,2015-05-23 05:50:00,
2015-05-23 01:55:00,51.8,49.8,30.25,East,92,0.0,10.0,93,0.00,,,0.00,Wunderground v.1.15,2015-05-23 05:55:00,
2015-05-23 02:05:00,51.7,50.0,30.25,East,92,0.0,10.0,94,0.00,,,0.00,Wunderground v.1.15,2015-05-23 06:05:00,
2015-05-23 02:10:00,51.8,50.1,30.25,East,92,0.0,10.0,94,0.00,,,0.00,Wunderground v.1.15,2015-05-23 06:10:00,
2015-05-23 02:15:00,51.8,50.4,30.25,East,92,0.0,10.0,95,0.00,,,0.00,Wunderground v.1.15,2015-05-23 06:15:00,
2015-05-23 02:20:00,51.8,50.4,30.25,East,92,0.0,10.0,95,0.00,,,0.00,Wunderground v.1.15,2015-05-23 06:20:00,
2015-05-23 02:30:00,51.5,50.1,30.25,East,92,0.0,10.0,95,0.00,,,0.00,Wunderground v.1.15,2015-05-23 06:30:00,
2015-05-23 02:35:00,51.3,49.9,30.25,East,92,0.0,10.0,95,0.00,,,0.00,Wunderground v.1.15,2015-05-23 06:35:00,
2015-05-23 02:40:00,51.2,49.8,30.25,East,92,0.0,10.0,95,0.00,,,0.00,Wunderground v.1.15,2015-05-23 06:40:00,
2015-05-23 02:55:00,50.8,49.4,30.25,East,92,0.0,10.0,95,0.00,,,0.00,Wunderground v.1.15,2015-05-23 06:55:00,
2015-05-23 03:00:00,50.7,49.3,30.25,East,92,0.0,10.0,95,0.00,,,0.00,Wunderground v.1.15,2015-05-23 07:00:00,
2015-05-23 03:05:00,50.6,49.2,30.26,East,92,0.0,10.0,95,0.00,,,0.00,Wunderground v.1.15,2015-05-23 07:05:00,
2015-05-23 03:10:00,50.5,49.4,30.26,East,92,0.0,10.0,96,0.00,,,0.00,Wunderground v.1.15,2015-05-23 07:10:00,
2015-05-23 03:15:00,50.4,49.3,30.25,East,92,0.0,10.0,96,0.00,,,0.00,Wunderground v.1.15,2015-05-23 07:15:00,
2015-05-23 03:25:00,50.2,49.1,30.26,East,92,0.0,10.0,96,0.00,,,0.00,Wunderground v.1.15,2015-05-23 07:25:00,
2015-05-23 03:30:00,50.1,49.0,30.26,East,92,0.0,10.0,96,0.00,,,0.00,Wunderground v.1.15,2015-05-23 07:30:00,
2015-05-23 03:35:00,50.1,49.0,30.26,East,92,0.0,10.0,96,0.00,,,0.00,Wunderground v.1.15,2015-05-23 07:35:00,
2015-05-23 03:45:00,49.9,48.8,30.26,East,92,0.0,10.0,96,0.00,,,0.00,Wunderground v.1.15,2015-05-23 07:45:00,
2015-05-23 03:50:00,49.9,48.8,30.26,East,92,0.0,10.0,96,0.00,,,0.00,Wunderground v.1.15,2015-05-23 07:50:00,
2015-05-23 03:55:00,49.8,48.7,30.27,East,92,0.0,10.0,96,0.00,,,0.00,Wunderground v.1.15,2015-05-23 07:55:00,
2015-05-23 04:00:00,49.7,48.6,30.27,East,92,0.0,10.0,96,0.00,,,0.00,Wunderground v.1.15,2015-05-23 08:00:00,
2015-05-23 04:05:00,49.9,49.1,30.27,East,92,0.0,10.0,97,0.00,,,0.00,Wunderground v.1.15,2015-05-23 08:05:00,
2015-05-23 04:15:00,49.7,48.6,30.27,East,92,0.0,10.0,96,0.00,,,0.00,Wunderground v.1.15,2015-05-23 08:15:00,
2015-05-23 04:20:00,49.6,48.5,30.27,East,92,0.0,10.0,96,0.00,,,0.00,Wunderground v.1.15,2015-05-23 08:20:00,
2015-05-23 04:25:00,49.5,48.4,30.27,East,92,0.0,10.0,96,0.00,,,0.00,Wunderground v.1.15,2015-05-23 08:25:00,
2015-05-23 04:30:00,49.4,48.6,30.27,East,92,0.0,10.0,97,0.00,,,0.00,Wunderground v.1.15,2015-05-23 08:30:00,
2015-05-23 04:35:00,49.4,48.6,30.27,East,92,0.0,10.0,97,0.00,,,0.00,Wunderground v.1.15,2015-05-23 08:35:00,
2015-05-23 04:45:00,49.4,48.6,30.28,East,92,0.0,10.0,97,0.00,,,0.00,Wunderground v.1.15,2015-05-23 08:45:00,
2015-05-23 04:50:00,49.3,48.5,30.28,East,92,0.0,10.0,97,0.00,,,0.00,Wunderground v.1.15,2015-05-23 08:50:00,
2015-05-23 04:55:00,49.2,48.4,30.28,East,92,0.0,10.0,97,0.00,,,0.00,Wunderground v.1.15,2015-05-23 08:55:00,
2015-05-23 05:00:00,49.1,48.3,30.29,ENE,69,0.0,10.0,97,0.00,,,0.00,Wunderground v.1.15,2015-05-23 09:00:00,
2015-05-23 05:05:00,49.0,48.2,30.29,ENE,69,0.0,10.0,97,0.00,,,0.00,Wunderground v.1.15,2015-05-23 09:05:00,
2015-05-23 05:15:00,49.0,48.2,30.29,ENE,69,0.0,10.0,97,0.00,,,0.00,Wunderground v.1.15,2015-05-23 09:15:00,
2015-05-23 05:20:00,49.0,48.2,30.29,ENE,70,0.0,10.0,97,0.00,,,0.00,Wunderground v.1.15,2015-05-23 09:20:00,
2015-05-23 05:25:00,49.0,48.2,30.29,ENE,71,0.0,10.0,97,0.00,,,0.00,Wunderground v.1.15,2015-05-23 09:25:00,
2015-05-23 05:35:00,49.0,48.2,30.30,ENE,70,0.0,10.0,97,0.00,,,0.00,Wunderground v.1.15,2015-05-23 09:35:00,
2015-05-23 05:40:00,49.0,48.2,30.30,ENE,70,0.0,10.0,97,0.00,,,0.00,Wunderground v.1.15,2015-05-23 09:40:00,
2015-05-23 05:45:00,49.0,48.2,30.30,ENE,70,0.0,10.0,97,0.00,,,0.00,Wunderground v.1.15,2015-05-23 09:45:00,
2015-05-23 05:50:00,48.9,48.1,30.30,ENE,70,0.0,10.0,97,0.00,,,0.00,Wunderground v.1.15,2015-05-23 09:50:00,
2015-05-23 05:55:00,48.9,48.1,30.30,ENE,70,0.0,10.0,97,0.00,,,0.00,Wunderground v.1.15,2015-05-23 09:55:00,
2015-05-23 06:10:00,48.9,48.1,30.30,ENE,70,0.0,10.0,97,0.00,,,0.00,Wunderground v.1.15,2015-05-23 10:10:00,
2015-05-23 06:15:00,48.8,48.0,30.31,ENE,70,0.0,10.0,97,0.00,,,0.00,Wunderground v.1.15,2015-05-23 10:15:00,
2015-05-23 06:20:00,48.9,48.4,30.31,ENE,70,0.0,10.0,98,0.00,,,0.00,Wunderground v.1.15,2015-05-23 10:20:00,
2015-05-23 06:30:00,49.0,48.5,30.32,ENE,70,0.0,10.0,98,0.00,,,0.00,Wunderground v.1.15,2015-05-23 10:30:00,
2015-05-23 06:35:00,49.0,48.5,30.32,ENE,70,0.0,10.0,98,0.00,,,0.00,Wunderground v.1.15,2015-05-23 10:35:00,
2015-05-23 06:40:00,49.1,48.6,30.33,ENE,70,0.0,10.0,98,0.00,,,0.00,Wunderground v.1.15,2015-05-23 10:40:00,
2015-05-23 06:45:00,49.2,48.7,30.33,ENE,70,0.0,10.0,98,0.00,,,0.00,Wunderground v.1.15,2015-05-23 10:45:00,
2015-05-23 06:55:00,50.2,49.9,30.34,ENE,73,0.0,10.0,99,0.00,,,0.00,Wunderground v.1.15,2015-05-23 10:55:00,
2015-05-23 07:00:00,50.5,50.2,30.34,ENE,73,0.0,10.0,99,0.00,,,0.00,Wunderground v.1.15,2015-05-23 11:00:00,
2015-05-23 07:05:00,50.7,50.4,30.34,ENE,73,0.0,10.0,99,0.00,,,0.00,Wunderground v.1.15,2015-05-23 11:05:00,
2015-05-23 07:10:00,51.1,50.8,30.35,ENE,73,0.0,10.0,99,0.00,,,0.00,Wunderground v.1.15,2015-05-23 11:10:00,
2015-05-23 07:20:00,51.9,51.6,30.35,ENE,73,0.0,10.0,99,0.00,,,0.00,Wunderground v.1.15,2015-05-23 11:20:00,
2015-05-23 07:25:00,52.7,52.4,30.35,ENE,73,0.0,10.0,99,0.00,,,0.00,Wunderground v.1.15,2015-05-23 11:25:00,
2015-05-23 07:30:00,53.4,53.1,30.35,ENE,67,0.0,10.0,99,0.00,,,0.00,Wunderground v.1.15,2015-05-23 11:30:00,
2015-05-23 07:35:00,54.4,53.8,30.35,NE,45,1.0,10.0,98,0.00,,,0.00,Wunderground v.1.15,2015-05-23 11:35:00,
2015-05-23 07:50:00,57.1,54.2,30.35,NE,41,4.0,10.0,90,0.00,,,0.00,Wunderground v.1.15,2015-05-23 11:50:00,
2015-05-23 07:55:00,57.8,54.6,30.35,NE,48,3.0,10.0,89,0.00,,,0.00,Wunderground v.1.15,2015-05-23 11:55:00,
2015-05-23 08:00:00,58.6,55.1,30.36,ENE,76,2.0,2.0,88,0.00,,,0.00,Wunderground v.1.15,2015-05-23 12:00:00,
2015-05-23 08:05:00,59.3,55.4,30.36,NE,49,2.0,10.0,87,0.00,,,0.00,Wunderground v.1.15,2015-05-23 12:05:00,
2015-05-23 08:15:00,60.4,55.9,30.37,ENE,60,2.0,10.0,85,0.00,,,0.00,Wunderground v.1.15,2015-05-23 12:15:00,